Location: *
(46.1833°N, 22.7667°E)
Time: 12:04:03
(UTC+00:00)

Cosmos 1980 - Pass Details

Date: 17 September 2019
Orbit: 841 x 846 km, 71.0° (Epoch: 15 October)

Event Time Altitude Azimuth Distance (km) Brightness Sun altitude
Rises 18:22:38 0° 333° (NNW) 3,408 7.7 -18.5°
Reaches altitude 10° 18:25:06 10° 335° (NNW) 2,469 6.8 -18.9°
Maximum altitude 18:30:47 82° 64° (ENE) 854 3.6 -19.7°
Enters shadow 18:33:25 33° 148° (SSE) 1,373 4.3 -20.2°
